Weather History for Santa Rosa, CA

Change the Weather History Date:

Sunday, January 26, 2014

  Actual Average Record
Temperature  
Mean Temperature 53 °F 47 °F  
Max Temperature 73 °F 58 °F 73 °F (2014)
Min Temperature 33 °F 37 °F 31 °F (2009)
Degree Days  
Heating Degree Days 12    
Month to date heating degree days 407  
Since 1 July heating degree days 1518  
Cooling Degree Days 0    
Month to date cooling degree days 0  
Year to date cooling degree days 0  
Growing Degree Days 4 (Base 50)    
Moisture  
Dew Point 37 °F    
Average Humidity 60    
Maximum Humidity 100    
Minimum Humidity 20    
Precipitation  
Precipitation 0.00 in 0.17 in 0.60 in (2008)
Month to date precipitation 0.08 6.18  
Year to date precipitation 0.08 6.18  
Since 1 July precipitation 2.10 20.37  
Sea Level Pressure  
Sea Level Pressure 30.07 in    
Wind  
Wind Speed 3 mph (ESE)    
Max Wind Speed 9 mph    
Max Gust Speed 12 mph    
Visibility 8 miles    
Events Fog    
T = Trace of Precipitation, MM = Missing Value Source: NWS Daily Summary

Daily Weather History Graph

Daily Weather History Graph

Search for Another Location

Airport:

Trip Planner

Search our weather history database for the weather conditions in past years. The results will help you decide how hot, cold, wet, or windy it might be!

Date:

Astronomy

Jan. 26, 2014 Rise Set
Actual Time 7:21 AM PST 5:26 PM PST
Civil Twilight 6:53 AM PST 5:55 PM PST
Nautical Twilight 6:21 AM PST 6:27 PM PST
Astronomical Twilight 5:49 AM PST 6:58 PM PST
Moon 3:04 AM PST (1/26) 1:21 PM PST (1/26)
Length of Visible Light 11h 02m
Length of Day
10h 05m
Waning Crescent, 23% of the Moon is Illuminated
Jan 26
Waning Crescent
Jan 30
New
Feb 6
First Quarter
Feb 14
Full
Feb 22
Last Quarter

Hourly Weather History & Observations

Time (PST) Temp. Windchill Dew Point Humidity Pressure Visibility Wind Dir Wind Speed Gust Speed Precip Events Conditions
12:53 AM 39.9 °F 37.8 °F 33.1 °F 77% 30.09 in 10.0 mi WSW 3.5 mph - N/A   Clear
1:53 AM 39.9 °F - 34.0 °F 79% 30.09 in 10.0 mi Calm Calm - N/A   Clear
2:53 AM 39.0 °F 36.8 °F 33.1 °F 79% 30.09 in 10.0 mi WSW 3.5 mph - N/A   Clear
3:53 AM 37.0 °F - 33.1 °F 86% 30.07 in 10.0 mi Calm Calm - N/A   Clear
4:53 AM 36.0 °F - 34.0 °F 93% 30.07 in 10.0 mi Calm Calm - N/A   Clear
5:53 AM 37.0 °F - 34.0 °F 89% 30.08 in 10.0 mi Calm Calm - N/A   Clear
6:53 AM 35.1 °F - 33.1 °F 92% 30.09 in 10.0 mi Calm Calm - N/A   Clear
7:53 AM 36.0 °F - 33.1 °F 89% 30.10 in 10.0 mi Calm Calm - N/A   Clear
8:53 AM 39.9 °F - 37.0 °F 89% 30.11 in 10.0 mi Calm Calm - N/A   Mostly Cloudy
9:53 AM 48.0 °F - 37.9 °F 68% 30.12 in 10.0 mi North 4.6 mph - N/A   Mostly Cloudy
10:53 AM 54.0 °F - 37.0 °F 53% 30.12 in 10.0 mi NW 4.6 mph - N/A   Clear
11:53 AM 63.0 °F - 35.1 °F 35% 30.09 in 10.0 mi Variable 6.9 mph - N/A   Scattered Clouds
12:11 PM 64.0 °F - 35.1 °F 34% 30.09 in 10.0 mi North 5.8 mph - N/A   Clear
12:12 PM 64.9 °F - 35.1 °F 33% 30.09 in 10.0 mi North 5.8 mph - N/A   Clear
12:25 PM 64.9 °F - 34.0 °F 32% 30.08 in 10.0 mi North 5.8 mph - N/A   Clear
12:53 PM 63.0 °F - 35.1 °F 35% 30.04 in 10.0 mi NNW 4.6 mph - N/A   Clear
1:53 PM 69.1 °F - 32.0 °F 25% 30.01 in 10.0 mi Calm Calm - N/A   Clear
2:53 PM 71.1 °F - 28.9 °F 21% 30.01 in 10.0 mi Variable 3.5 mph - N/A   Scattered Clouds
3:53 PM 72.0 °F - 32.0 °F 23% 29.99 in 10.0 mi SE 3.5 mph - N/A   Partly Cloudy
4:53 PM 66.0 °F - 39.9 °F 38% 30.00 in 10.0 mi South 6.9 mph - N/A   Clear
5:53 PM 55.9 °F - 39.0 °F 53% 30.02 in 10.0 mi SE 6.9 mph - N/A   Clear
6:53 PM 54.0 °F - 39.0 °F 57% 30.02 in 10.0 mi ESE 8.1 mph - N/A   Clear
7:53 PM 50.0 °F - 37.9 °F 63% 30.04 in 10.0 mi SE 8.1 mph - N/A   Clear
8:53 PM 48.0 °F - 43.0 °F 83% 30.05 in 10.0 mi SSE 8.1 mph - N/A   Clear
9:53 PM 45.0 °F 43.5 °F 44.1 °F 97% 30.07 in 7.0 mi ESE 3.5 mph - N/A   Clear
10:44 PM 44.1 °F - 43.0 °F 96% 30.09 in 1.8 mi Calm Calm - N/A   Clear
10:53 PM 43.0 °F - 43.0 °F 100% 30.07 in 0.8 mi Calm Calm - N/A   Clear
11:04 PM 42.1 °F - 42.1 °F 100% 30.09 in 0.5 mi Calm Calm - N/A Fog Fog
11:27 PM 41.0 °F - 41.0 °F 100% 30.08 in 0.2 mi Calm Calm - N/A Fog Fog
11:53 PM 42.1 °F - 42.1 °F 100% 30.06 in 0.2 mi Calm Calm - N/A Fog Fog